owner,sensor,date,latitude,longitude,vertical_datum,sea_water_practical_salinity,qcFlag 
NERRS,ioos:station:NOAA.NERRS:gndblwq:1,2015-01-02T16:00:00Z,30.3571,-88.4629,0.42,22.1,1111122 
NERRS,ioos:station:NOAA.NERRS:gndblwq:1,2015-01-02T17:00:00Z,30.3571,-88.4629,0.48,22.3,1111122 
NERRS,ioos:station:NOAA.NERRS:gndblwq:1,2015-01-02T18:00:00Z,30.3571,-88.4629,0.5,22.7,1111122 
NERRS,ioos:station:NOAA.NERRS:gndblwq:1,2015-01-02T19:00:00Z,30.3571,-88.4629,0.52,23.1,1111122 
NERRS,ioos:station:NOAA.NERRS:gndblwq:1,2015-01-02T21:00:00Z,30.3571,-88.4629,0.59,23.7,1111122 
NERRS,ioos:station:NOAA.NERRS:gndblwq:1,2015-01-02T22:00:00Z,30.3571,-88.4629,0.64,24.3,1111122 
NERRS,ioos:station:NOAA.NERRS:gndblwq:1,2015-01-02T23:00:00Z,30.3571,-88.4629,0.68,24.9,1111122 
NERRS,ioos:station:NOAA.NERRS:gndblwq:1,2015-01-03T00:00:00Z,30.3571,-88.4629,0.72,25.0,1111122 
NERRS,ioos:station:NOAA.NERRS:gndblwq:1,2015-01-03T01:00:00Z,30.3571,-88.4629,0.76,25.2,1111122 
NERRS,ioos:station:NOAA.NERRS:gndblwq:1,2015-01-03T03:00:00Z,30.3571,-88.4629,0.78,25.1,1111122 
NERRS,ioos:station:NOAA.NERRS:gndblwq:1,2015-01-03T04:00:00Z,30.3571,-88.4629,0.75,24.9,1111122 
NERRS,ioos:station:NOAA.NERRS:gndblwq:1,2015-01-03T05:00:00Z,30.3571,-88.4629,0.71,24.9,1111122 
NERRS,ioos:station:NOAA.NERRS:gndblwq:1,2015-01-03T06:00:00Z,30.3571,-88.4629,0.65,24.8,1111122 
NERRS,ioos:station:NOAA.NERRS:gndblwq:1,2015-01-03T07:00:00Z,30.3571,-88.4629,0.55,24.4,1111122 
NERRS,ioos:station:NOAA.NERRS:gndblwq:1,2015-01-03T08:00:00Z,30.3571,-88.4629,0.44,24.1,1111122 
NERRS,ioos:station:NOAA.NERRS:gndblwq:1,2015-01-03T09:00:00Z,30.3571,-88.4629,0.35,24.0,1111122 
NERRS,ioos:station:NOAA.NERRS:gndblwq:1,2015-01-03T10:00:00Z,30.3571,-88.4629,0.27,24.0,1111122 
NERRS,ioos:station:NOAA.NERRS:gndblwq:1,2015-01-03T11:00:00Z,30.3571,-88.4629,0.23,23.7,1111122 
NERRS,ioos:station:NOAA.NERRS:gndblwq:1,2015-01-03T12:00:00Z,30.3571,-88.4629,0.26,22.6,1111122 
NERRS,ioos:station:NOAA.NERRS:gndblwq:1,2015-01-03T13:00:00Z,30.3571,-88.4629,0.3,22.6,1111122 
NERRS,ioos:station:NOAA.NERRS:gndblwq:1,2015-01-03T14:00:00Z,30.3571,-88.4629,0.32,22.3,1111122 
NERRS,ioos:station:NOAA.NERRS:gndblwq:1,2015-01-03T15:00:00Z,30.3571,-88.4629,0.38,22.4,1111122 
NERRS,ioos:station:NOAA.NERRS:gndblwq:1,2015-01-03T16:00:00Z,30.3571,-88.4629,0.42,22.3,1111122 
NERRS,ioos:station:NOAA.NERRS:gndblwq:1,2015-01-03T17:00:00Z,30.3571,-88.4629,0.47,22.4,1111122 
NERRS,ioos:station:NOAA.NERRS:gndblwq:1,2015-01-03T19:00:00Z,30.3571,-88.4629,0.56,23.3,1111122 
NERRS,ioos:station:NOAA.NERRS:gndblwq:1,2015-01-03T20:00:00Z,30.3571,-88.4629,0.61,23.7,1111122 
NERRS,ioos:station:NOAA.NERRS:gndblwq:1,2015-01-03T21:00:00Z,30.3571,-88.4629,0.67,23.9,1111122 
NERRS,ioos:station:NOAA.NERRS:gndblwq:1,2015-01-03T22:00:00Z,30.3571,-88.4629,0.74,24.5,1111122 
NERRS,ioos:station:NOAA.NERRS:gndblwq:1,2015-01-03T23:00:00Z,30.3571,-88.4629,0.78,24.5,1111122 
NERRS,ioos:station:NOAA.NERRS:gndblwq:1,2015-01-04T00:00:00Z,30.3571,-88.4629,0.83,24.4,1111122 
NERRS,ioos:station:NOAA.NERRS:gndblwq:1,2015-01-04T01:00:00Z,30.3571,-88.4629,0.89,24.4,1111122 
NERRS,ioos:station:NOAA.NERRS:gndblwq:1,2015-01-04T02:00:00Z,30.3571,-88.4629,0.93,24.3,1111122 
NERRS,ioos:station:NOAA.NERRS:gndblwq:1,2015-01-04T03:00:00Z,30.3571,-88.4629,0.93,24.3,1111122 
NERRS,ioos:station:NOAA.NERRS:gndblwq:1,2015-01-04T04:00:00Z,30.3571,-88.4629,0.9,23.9,1111122 
NERRS,ioos:station:NOAA.NERRS:gndblwq:1,2015-01-04T05:00:00Z,30.3571,-88.4629,0.86,23.8,1111122 
NERRS,ioos:station:NOAA.NERRS:gndblwq:1,2015-01-04T07:00:00Z,30.3571,-88.4629,0.73,23.9,1111122 
NERRS,ioos:station:NOAA.NERRS:gndblwq:1,2015-01-04T08:00:00Z,30.3571,-88.4629,0.66,23.6,1111122 
NERRS,ioos:station:NOAA.NERRS:gndblwq:1,2015-01-05T16:00:00Z,30.3571,-88.4629,0.23,21.4,1111122 
NERRS,ioos:station:NOAA.NERRS:gndblwq:1,2015-01-05T17:00:00Z,30.3571,-88.4629,0.25,21.4,1111122 
NERRS,ioos:station:NOAA.NERRS:gndblwq:1,2015-01-05T18:00:00Z,30.3571,-88.4629,0.31,21.6,1111122 
NERRS,ioos:station:NOAA.NERRS:gndblwq:1,2015-01-05T19:00:00Z,30.3571,-88.4629,0.36,21.9,1111122 
NERRS,ioos:station:NOAA.NERRS:gndblwq:1,2015-01-05T20:00:00Z,30.3571,-88.4629,0.42,22.2,1111122 
NERRS,ioos:station:NOAA.NERRS:gndblwq:1,2015-01-05T21:00:00Z,30.3571,-88.4629,0.49,22.6,1111122 
NERRS,ioos:station:NOAA.NERRS:gndblwq:1,2015-01-05T22:00:00Z,30.3571,-88.4629,0.54,23.1,1111122 
NERRS,ioos:station:NOAA.NERRS:gndblwq:1,2015-01-05T23:00:00Z,30.3571,-88.4629,0.57,23.1,1111122 
NERRS,ioos:station:NOAA.NERRS:gndblwq:1,2015-01-06T00:00:00Z,30.3571,-88.4629,0.59,22.8,1111122 
NERRS,ioos:station:NOAA.NERRS:gndblwq:1,2015-01-06T01:00:00Z,30.3571,-88.4629,0.63,22.8,1111122 
NERRS,ioos:station:NOAA.NERRS:gndblwq:1,2015-01-06T02:00:00Z,30.3571,-88.4629,0.68,22.7,1111122 
NERRS,ioos:station:NOAA.NERRS:gndblwq:1,2015-01-06T03:00:00Z,30.3571,-88.4629,0.72,23.1,1111122 
NERRS,ioos:station:NOAA.NERRS:gndblwq:1,2015-01-06T04:00:00Z,30.3571,-88.4629,0.72,23.4,1111122 
NERRS,ioos:station:NOAA.NERRS:gndblwq:1,2015-01-06T05:00:00Z,30.3571,-88.4629,0.68,22.9,1111122 
NERRS,ioos:station:NOAA.NERRS:gndblwq:1,2015-01-06T06:00:00Z,30.3571,-88.4629,0.6,22.8,1111122 
NERRS,ioos:station:NOAA.NERRS:gndblwq:1,2015-01-06T07:00:00Z,30.3571,-88.4629,0.54,22.2,1111122 
NERRS,ioos:station:NOAA.NERRS:gndblwq:1,2015-01-06T08:00:00Z,30.3571,-88.4629,0.49,22.0,1111122 
NERRS,ioos:station:NOAA.NERRS:gndblwq:1,2015-01-06T09:00:00Z,30.3571,-88.4629,0.41,22.0,1111122 
NERRS,ioos:station:NOAA.NERRS:gndblwq:1,2015-01-06T10:00:00Z,30.3571,-88.4629,0.32,21.7,1111122 
NERRS,ioos:station:NOAA.NERRS:gndblwq:1,2015-01-06T11:00:00Z,30.3571,-88.4629,0.21,21.6,1111122 
NERRS,ioos:station:NOAA.NERRS:gndblwq:1,2015-01-06T12:00:00Z,30.3571,-88.4629,0.18,21.7,1111122 
NERRS,ioos:station:NOAA.NERRS:gndblwq:1,2015-01-06T13:00:00Z,30.3571,-88.4629,0.19,2.2,1111122 
NERRS,ioos:station:NOAA.NERRS:gndblwq:1,2015-01-06T14:00:00Z,30.3571,-88.4629,0.19,20.9,1111122 
NERRS,ioos:station:NOAA.NERRS:gndblwq:1,2015-01-06T15:00:00Z,30.3571,-88.4629,0.2,21.0,1111122 
NERRS,ioos:station:NOAA.NERRS:gndblwq:1,2015-01-06T16:00:00Z,30.3571,-88.4629,0.2,21.1,1111122 
NERRS,ioos:station:NOAA.NERRS:gndblwq:1,2015-01-06T17:00:00Z,30.3571,-88.4629,0.18,21.1,1111122 
NERRS,ioos:station:NOAA.NERRS:gndblwq:1,2015-01-06T18:00:00Z,30.3571,-88.4629,0.16,21.4,1111122 
NERRS,ioos:station:NOAA.NERRS:gndblwq:1,2015-01-06T19:00:00Z,30.3571,-88.4629,0.23,21.4,1111122 
NERRS,ioos:station:NOAA.NERRS:gndblwq:1,2015-01-06T20:00:00Z,30.3571,-88.4629,0.31,21.5,1111122 
NERRS,ioos:station:NOAA.NERRS:gndblwq:1,2015-01-06T21:00:00Z,30.3571,-88.4629,0.36,21.8,1111122 
NERRS,ioos:station:NOAA.NERRS:gndblwq:1,2015-01-06T22:00:00Z,30.3571,-88.4629,0.39,22.0,1111122 
NERRS,ioos:station:NOAA.NERRS:gndblwq:1,2015-01-06T23:00:00Z,30.3571,-88.4629,0.41,22.8,1111122 
NERRS,ioos:station:NOAA.NERRS:gndblwq:1,2015-01-07T00:00:00Z,30.3571,-88.4629,0.44,22.5,1111122 
NERRS,ioos:station:NOAA.NERRS:gndblwq:1,2015-01-07T01:00:00Z,30.3571,-88.4629,0.52,22.2,1111122 
NERRS,ioos:station:NOAA.NERRS:gndblwq:1,2015-01-07T03:00:00Z,30.3571,-88.4629,0.66,25.3,1111122 
NERRS,ioos:station:NOAA.NERRS:gndblwq:1,2015-01-07T04:00:00Z,30.3571,-88.4629,0.69,25.2,1111122 
NERRS,ioos:station:NOAA.NERRS:gndblwq:1,2015-01-07T05:00:00Z,30.3571,-88.4629,0.65,23.6,1111122 
NERRS,ioos:station:NOAA.NERRS:gndblwq:1,2015-01-07T06:00:00Z,30.3571,-88.4629,0.57,22.2,1111122 
NERRS,ioos:station:NOAA.NERRS:gndblwq:1,2015-01-07T07:00:00Z,30.3571,-88.4629,0.54,22.6,1111122 
NERRS,ioos:station:NOAA.NERRS:gndblwq:1,2015-01-07T08:00:00Z,30.3571,-88.4629,0.52,22.5,1111122 
NERRS,ioos:station:NOAA.NERRS:gndblwq:1,2015-01-07T09:00:00Z,30.3571,-88.4629,0.46,22.2,1111122 
NERRS,ioos:station:NOAA.NERRS:gndblwq:1,2015-01-07T10:00:00Z,30.3571,-88.4629,0.37,23.2,1111122 
NERRS,ioos:station:NOAA.NERRS:gndblwq:1,2015-01-07T11:00:00Z,30.3571,-88.4629,0.27,22.4,1111122 
NERRS,ioos:station:NOAA.NERRS:gndblwq:1,2015-01-07T12:00:00Z,30.3571,-88.4629,0.19,21.8,1111122 
NERRS,ioos:station:NOAA.NERRS:gndblwq:1,2015-01-07T13:00:00Z,30.3571,-88.4629,0.14,21.7,1111122 
NERRS,ioos:station:NOAA.NERRS:gndblwq:1,2015-01-07T14:00:00Z,30.3571,-88.4629,0.15,21.7,1111122 
NERRS,ioos:station:NOAA.NERRS:gndblwq:1,2015-01-07T15:00:00Z,30.3571,-88.4629,0.21,22.6,1111122 
NERRS,ioos:station:NOAA.NERRS:gndblwq:1,2015-01-07T16:00:00Z,30.3571,-88.4629,0.24,22.7,1111122 
NERRS,ioos:station:NOAA.NERRS:gndblwq:1,2015-01-07T17:00:00Z,30.3571,-88.4629,0.22,23.0,1111122 
NERRS,ioos:station:NOAA.NERRS:gndblwq:1,2015-01-07T18:00:00Z,30.3571,-88.4629,0.21,23.2,1111122 
NERRS,ioos:station:NOAA.NERRS:gndblwq:1,2015-01-07T19:00:00Z,30.3571,-88.4629,0.18,22.6,1111122 
NERRS,ioos:station:NOAA.NERRS:gndblwq:1,2015-01-07T20:00:00Z,30.3571,-88.4629,0.19,22.9,1111122 
NERRS,ioos:station:NOAA.NERRS:gndblwq:1,2015-01-07T21:00:00Z,30.3571,-88.4629,0.26,23.3,1111122 
NERRS,ioos:station:NOAA.NERRS:gndblwq:1,2015-01-07T22:00:00Z,30.3571,-88.4629,0.29,23.2,1111122 
NERRS,ioos:station:NOAA.NERRS:gndblwq:1,2015-01-07T23:00:00Z,30.3571,-88.4629,0.23,22.8,1111122 
NERRS,ioos:station:NOAA.NERRS:gndblwq:1,2015-01-08T00:00:00Z,30.3571,-88.4629,0.2,22.0,1111122 
NERRS,ioos:station:NOAA.NERRS:gndblwq:1,2015-01-08T01:00:00Z,30.3571,-88.4629,0.21,22.5,1111122 
NERRS,ioos:station:NOAA.NERRS:gndblwq:1,2015-01-08T02:00:00Z,30.3571,-88.4629,0.21,22.4,1111122 
NERRS,ioos:station:NOAA.NERRS:gndblwq:1,2015-01-08T03:00:00Z,30.3571,-88.4629,0.23,22.8,1111122 
NERRS,ioos:station:NOAA.NERRS:gndblwq:1,2015-01-08T04:00:00Z,30.3571,-88.4629,0.25,22.9,1111122 
NERRS,ioos:station:NOAA.NERRS:gndblwq:1,2015-01-08T05:00:00Z,30.3571,-88.4629,0.23,22.9,1111122 
NERRS,ioos:station:NOAA.NERRS:gndblwq:1,2015-01-08T07:00:00Z,30.3571,-88.4629,0.29,23.0,1111122 
NERRS,ioos:station:NOAA.NERRS:gndblwq:1,2015-01-08T08:00:00Z,30.3571,-88.4629,0.3,23.1,1111122 
NERRS,ioos:station:NOAA.NERRS:gndblwq:1,2015-01-08T09:00:00Z,30.3571,-88.4629,0.34,23.4,1111122 
NERRS,ioos:station:NOAA.NERRS:gndblwq:1,2015-01-08T10:00:00Z,30.3571,-88.4629,0.31,23.4,1111122 
NERRS,ioos:station:NOAA.NERRS:gndblwq:1,2015-01-08T11:00:00Z,30.3571,-88.4629,0.24,23.2,1111122 
NERRS,ioos:station:NOAA.NERRS:gndblwq:1,2015-01-08T12:00:00Z,30.3571,-88.4629,0.24,22.6,1111122 
NERRS,ioos:station:NOAA.NERRS:gndblwq:1,2015-01-08T13:00:00Z,30.3571,-88.4629,0.24,17.2,1111122 
NERRS,ioos:station:NOAA.NERRS:gndblwq:1,2015-01-08T14:00:00Z,30.3571,-88.4629,0.25,22.7,1111122 
NERRS,ioos:station:NOAA.NERRS:gndblwq:1,2015-01-08T15:00:00Z,30.3571,-88.4629,0.26,22.9,1111122 
NERRS,ioos:station:NOAA.NERRS:gndblwq:1,2015-01-08T16:00:00Z,30.3571,-88.4629,0.27,22.9,1111122 
NERRS,ioos:station:NOAA.NERRS:gndblwq:1,2015-01-08T17:00:00Z,30.3571,-88.4629,0.33,23.1,1111122 
NERRS,ioos:station:NOAA.NERRS:gndblwq:1,2015-01-08T18:00:00Z,30.3571,-88.4629,0.33,23.2,1111122 
NERRS,ioos:station:NOAA.NERRS:gndblwq:1,2015-01-08T19:00:00Z,30.3571,-88.4629,0.34,23.3,1111122 
NERRS,ioos:station:NOAA.NERRS:gndblwq:1,2015-01-08T20:00:00Z,30.3571,-88.4629,0.37,23.8,1111122 
NERRS,ioos:station:NOAA.NERRS:gndblwq:1,2015-01-08T21:00:00Z,30.3571,-88.4629,0.39,23.9,1111122 
NERRS,ioos:station:NOAA.NERRS:gndblwq:1,2015-01-08T22:00:00Z,30.3571,-88.4629,0.41,24.3,1111122 
NERRS,ioos:station:NOAA.NERRS:gndblwq:1,2015-01-08T23:00:00Z,30.3571,-88.4629,0.39,24.3,1111122 
NERRS,ioos:station:NOAA.NERRS:gndblwq:1,2015-01-09T00:00:00Z,30.3571,-88.4629,0.35,24.0,1111122 
NERRS,ioos:station:NOAA.NERRS:gndblwq:1,2015-01-09T01:00:00Z,30.3571,-88.4629,0.39,24.3,1111122 
NERRS,ioos:station:NOAA.NERRS:gndblwq:1,2015-01-09T02:00:00Z,30.3571,-88.4629,0.48,24.9,1111122 
NERRS,ioos:station:NOAA.NERRS:gndblwq:1,2015-01-09T03:00:00Z,30.3571,-88.4629,0.59,25.7,1111122 
NERRS,ioos:station:NOAA.NERRS:gndblwq:1,2015-01-09T04:00:00Z,30.3571,-88.4629,0.67,26.3,1111122 
NERRS,ioos:station:NOAA.NERRS:gndblwq:1,2015-01-09T05:00:00Z,30.3571,-88.4629,0.66,26.3,1111122 
NERRS,ioos:station:NOAA.NERRS:gndblwq:1,2015-01-09T07:00:00Z,30.3571,-88.4629,0.52,25.0,1111122 
NERRS,ioos:station:NOAA.NERRS:gndblwq:1,2015-01-09T08:00:00Z,30.3571,-88.4629,0.46,24.2,1111122 
NERRS,ioos:station:NOAA.NERRS:gndblwq:1,2015-01-09T09:00:00Z,30.3571,-88.4629,0.46,24.2,1111122 
NERRS,ioos:station:NOAA.NERRS:gndblwq:1,2015-01-09T10:00:00Z,30.3571,-88.4629,0.4,24.2,1111122 
NERRS,ioos:station:NOAA.NERRS:gndblwq:1,2015-01-09T11:00:00Z,30.3571,-88.4629,0.3,23.6,1111122 
NERRS,ioos:station:NOAA.NERRS:gndblwq:1,2015-01-09T12:00:00Z,30.3571,-88.4629,0.24,24.1,1111122 
NERRS,ioos:station:NOAA.NERRS:gndblwq:1,2015-01-09T13:00:00Z,30.3571,-88.4629,0.19,23.7,1111122 
NERRS,ioos:station:NOAA.NERRS:gndblwq:1,2015-01-09T14:00:00Z,30.3571,-88.4629,0.2,23.8,1111122 
NERRS,ioos:station:NOAA.NERRS:gndblwq:1,2015-01-09T15:00:00Z,30.3571,-88.4629,0.23,23.8,1111122 
NERRS,ioos:station:NOAA.NERRS:gndblwq:1,2015-01-09T16:00:00Z,30.3571,-88.4629,0.28,23.9,1111122 
NERRS,ioos:station:NOAA.NERRS:gndblwq:1,2015-01-09T17:00:00Z,30.3571,-88.4629,0.31,24.0,1111122 
NERRS,ioos:station:NOAA.NERRS:gndblwq:1,2015-01-09T18:00:00Z,30.3571,-88.4629,0.31,24.0,1111122 
NERRS,ioos:station:NOAA.NERRS:gndblwq:1,2015-01-09T19:00:00Z,30.3571,-88.4629,0.27,24.0,1111122 
NERRS,ioos:station:NOAA.NERRS:gndblwq:1,2015-01-09T20:00:00Z,30.3571,-88.4629,0.32,24.0,1111122 
NERRS,ioos:station:NOAA.NERRS:gndblwq:1,2015-01-09T21:00:00Z,30.3571,-88.4629,0.4,24.1,1111122 
NERRS,ioos:station:NOAA.NERRS:gndblwq:1,2015-01-09T22:00:00Z,30.3571,-88.4629,0.44,24.4,1111122 
NERRS,ioos:station:NOAA.NERRS:gndblwq:1,2015-01-09T23:00:00Z,30.3571,-88.4629,0.46,24.5,1111122 
NERRS,ioos:station:NOAA.NERRS:gndblwq:1,2015-01-10T00:00:00Z,30.3571,-88.4629,0.42,24.3,1111122 
NERRS,ioos:station:NOAA.NERRS:gndblwq:1,2015-01-10T01:00:00Z,30.3571,-88.4629,0.38,24.0,1111122 
NERRS,ioos:station:NOAA.NERRS:gndblwq:1,2015-01-10T02:00:00Z,30.3571,-88.4629,0.39,24.1,1111122 
NERRS,ioos:station:NOAA.NERRS:gndblwq:1,2015-01-10T03:00:00Z,30.3571,-88.4629,0.43,24.2,1111122 
NERRS,ioos:station:NOAA.NERRS:gndblwq:1,2015-01-10T04:00:00Z,30.3571,-88.4629,0.49,24.2,1111122 
NERRS,ioos:station:NOAA.NERRS:gndblwq:1,2015-01-10T05:00:00Z,30.3571,-88.4629,0.5,24.6,1111122 
NERRS,ioos:station:NOAA.NERRS:gndblwq:1,2015-01-10T06:00:00Z,30.3571,-88.4629,0.48,24.4,1111122 
NERRS,ioos:station:NOAA.NERRS:gndblwq:1,2015-01-10T07:00:00Z,30.3571,-88.4629,0.48,24.5,1111122 
NERRS,ioos:station:NOAA.NERRS:gndblwq:1,2015-01-10T08:00:00Z,30.3571,-88.4629,0.48,24.6,1111122 
NERRS,ioos:station:NOAA.NERRS:gndblwq:1,2015-01-10T09:00:00Z,30.3571,-88.4629,0.44,24.4,1111122 
NERRS,ioos:station:NOAA.NERRS:gndblwq:1,2015-01-10T10:00:00Z,30.3571,-88.4629,0.42,24.3,1111122 
NERRS,ioos:station:NOAA.NERRS:gndblwq:1,2015-01-10T11:00:00Z,30.3571,-88.4629,0.4,23.0,1111122 
NERRS,ioos:station:NOAA.NERRS:gndblwq:1,2015-01-10T12:00:00Z,30.3571,-88.4629,0.34,23.1,1111122 
NERRS,ioos:station:NOAA.NERRS:gndblwq:1,2015-01-10T13:00:00Z,30.3571,-88.4629,0.29,23.6,1111122 
NERRS,ioos:station:NOAA.NERRS:gndblwq:1,2015-01-10T14:00:00Z,30.3571,-88.4629,0.32,23.7,1111122 
NERRS,ioos:station:NOAA.NERRS:gndblwq:1,2015-01-10T15:00:00Z,30.3571,-88.4629,0.35,23.9,1111122 
NERRS,ioos:station:NOAA.NERRS:gndblwq:1,2015-01-10T16:00:00Z,30.3571,-88.4629,0.41,24.2,1111122 
NERRS,ioos:station:NOAA.NERRS:gndblwq:1,2015-01-10T17:00:00Z,30.3571,-88.4629,0.44,24.4,1111122 
NERRS,ioos:station:NOAA.NERRS:gndblwq:1,2015-01-10T18:00:00Z,30.3571,-88.4629,0.45,24.5,1111122 
NERRS,ioos:station:NOAA.NERRS:gndblwq:1,2015-01-10T19:00:00Z,30.3571,-88.4629,0.45,24.7,1111122 
NERRS,ioos:station:NOAA.NERRS:gndblwq:1,2015-01-10T20:00:00Z,30.3571,-88.4629,0.48,25.0,1111122 
NERRS,ioos:station:NOAA.NERRS:gndblwq:1,2015-01-10T21:00:00Z,30.3571,-88.4629,0.52,25.3,1111122 
NERRS,ioos:station:NOAA.NERRS:gndblwq:1,2015-01-10T22:00:00Z,30.3571,-88.4629,0.55,25.4,1111122 
NERRS,ioos:station:NOAA.NERRS:gndblwq:1,2015-01-10T23:00:00Z,30.3571,-88.4629,0.51,25.0,1111122 
NERRS,ioos:station:NOAA.NERRS:gndblwq:1,2015-01-11T00:00:00Z,30.3571,-88.4629,0.47,25.4,1111122 
NERRS,ioos:station:NOAA.NERRS:gndblwq:1,2015-01-11T01:00:00Z,30.3571,-88.4629,0.5,24.7,1111122 
NERRS,ioos:station:NOAA.NERRS:gndblwq:1,2015-01-11T02:00:00Z,30.3571,-88.4629,0.54,24.9,1111122 
NERRS,ioos:station:NOAA.NERRS:gndblwq:1,2015-01-11T03:00:00Z,30.3571,-88.4629,0.55,25.1,1111122 
NERRS,ioos:station:NOAA.NERRS:gndblwq:1,2015-01-11T04:00:00Z,30.3571,-88.4629,0.54,25.1,1111122 
NERRS,ioos:station:NOAA.NERRS:gndblwq:1,2015-01-11T05:00:00Z,30.3571,-88.4629,0.53,25.2,1111122 
NERRS,ioos:station:NOAA.NERRS:gndblwq:1,2015-01-11T06:00:00Z,30.3571,-88.4629,0.53,25.3,1111122 
NERRS,ioos:station:NOAA.NERRS:gndblwq:1,2015-01-11T07:00:00Z,30.3571,-88.4629,0.48,25.1,1111122 
NERRS,ioos:station:NOAA.NERRS:gndblwq:1,2015-01-11T08:00:00Z,30.3571,-88.4629,0.47,25.0,1111122 
NERRS,ioos:station:NOAA.NERRS:gndblwq:1,2015-01-11T09:00:00Z,30.3571,-88.4629,0.48,25.0,1111122 
NERRS,ioos:station:NOAA.NERRS:gndblwq:1,2015-01-11T10:00:00Z,30.3571,-88.4629,0.45,24.9,1111122 
NERRS,ioos:station:NOAA.NERRS:gndblwq:1,2015-01-11T11:00:00Z,30.3571,-88.4629,0.41,24.9,1111122 
NERRS,ioos:station:NOAA.NERRS:gndblwq:1,2015-01-11T12:00:00Z,30.3571,-88.4629,0.4,24.5,1111122 
NERRS,ioos:station:NOAA.NERRS:gndblwq:1,2015-01-11T13:00:00Z,30.3571,-88.4629,0.39,24.6,1111122 
NERRS,ioos:station:NOAA.NERRS:gndblwq:1,2015-01-11T14:00:00Z,30.3571,-88.4629,0.39,24.5,1111122 
NERRS,ioos:station:NOAA.NERRS:gndblwq:1,2015-01-11T15:00:00Z,30.3571,-88.4629,0.42,25.0,1111122 
NERRS,ioos:station:NOAA.NERRS:gndblwq:1,2015-01-11T16:00:00Z,30.3571,-88.4629,0.43,24.8,1111122 
NERRS,ioos:station:NOAA.NERRS:gndblwq:1,2015-01-11T17:00:00Z,30.3571,-88.4629,0.45,25.1,1111122 
NERRS,ioos:station:NOAA.NERRS:gndblwq:1,2015-01-11T18:00:00Z,30.3571,-88.4629,0.48,25.0,1111122 
NERRS,ioos:station:NOAA.NERRS:gndblwq:1,2015-01-11T19:00:00Z,30.3571,-88.4629,0.53,25.1,1111122 
NERRS,ioos:station:NOAA.NERRS:gndblwq:1,2015-01-11T20:00:00Z,30.3571,-88.4629,0.54,25.5,1111122 
NERRS,ioos:station:NOAA.NERRS:gndblwq:1,2015-01-11T21:00:00Z,30.3571,-88.4629,0.57,25.4,1111122 
NERRS,ioos:station:NOAA.NERRS:gndblwq:1,2015-01-11T22:00:00Z,30.3571,-88.4629,0.61,25.1,1111122 
NERRS,ioos:station:NOAA.NERRS:gndblwq:1,2015-01-11T23:00:00Z,30.3571,-88.4629,0.62,24.9,1111122 
NERRS,ioos:station:NOAA.NERRS:gndblwq:1,2015-01-12T00:00:00Z,30.3571,-88.4629,0.61,24.7,1111122 
NERRS,ioos:station:NOAA.NERRS:gndblwq:1,2015-01-12T01:00:00Z,30.3571,-88.4629,0.64,24.8,1111122 
NERRS,ioos:station:NOAA.NERRS:gndblwq:1,2015-01-12T02:00:00Z,30.3571,-88.4629,0.66,24.4,1111122 
NERRS,ioos:station:NOAA.NERRS:gndblwq:1,2015-01-12T03:00:00Z,30.3571,-88.4629,0.67,24.3,1111122 
NERRS,ioos:station:NOAA.NERRS:gndblwq:1,2015-01-12T04:00:00Z,30.3571,-88.4629,0.66,24.3,1111122 
NERRS,ioos:station:NOAA.NERRS:gndblwq:1,2015-01-12T05:00:00Z,30.3571,-88.4629,0.64,24.3,1111122 
NERRS,ioos:station:NOAA.NERRS:gndblwq:1,2015-01-12T06:00:00Z,30.3571,-88.4629,0.6,24.6,1111122 
NERRS,ioos:station:NOAA.NERRS:gndblwq:1,2015-01-12T07:00:00Z,30.3571,-88.4629,0.56,24.8,1111122 
NERRS,ioos:station:NOAA.NERRS:gndblwq:1,2015-01-12T08:00:00Z,30.3571,-88.4629,0.55,24.4,1111122 
NERRS,ioos:station:NOAA.NERRS:gndblwq:1,2015-01-12T09:00:00Z,30.3571,-88.4629,0.55,24.5,1111122 
NERRS,ioos:station:NOAA.NERRS:gndblwq:1,2015-01-12T10:00:00Z,30.3571,-88.4629,0.51,24.5,1111122 
NERRS,ioos:station:NOAA.NERRS:gndblwq:1,2015-01-12T11:00:00Z,30.3571,-88.4629,0.47,24.4,1111122 
NERRS,ioos:station:NOAA.NERRS:gndblwq:1,2015-01-12T12:00:00Z,30.3571,-88.4629,0.45,24.5,1111122 
NERRS,ioos:station:NOAA.NERRS:gndblwq:1,2015-01-12T13:00:00Z,30.3571,-88.4629,0.42,24.6,1111122 
NERRS,ioos:station:NOAA.NERRS:gndblwq:1,2015-01-12T14:00:00Z,30.3571,-88.4629,0.41,24.2,1111122 
NERRS,ioos:station:NOAA.NERRS:gndblwq:1,2015-01-12T15:00:00Z,30.3571,-88.4629,0.4,24.3,1111122 
NERRS,ioos:station:NOAA.NERRS:gndblwq:1,2015-01-12T16:00:00Z,30.3571,-88.4629,0.45,24.6,1111122 
NERRS,ioos:station:NOAA.NERRS:gndblwq:1,2015-01-12T17:00:00Z,30.3571,-88.4629,0.49,24.4,1111122 
NERRS,ioos:station:NOAA.NERRS:gndblwq:1,2015-01-12T18:00:00Z,30.3571,-88.4629,0.5,23.9,1111122 
NERRS,ioos:station:NOAA.NERRS:gndblwq:1,2015-01-12T19:00:00Z,30.3571,-88.4629,0.49,23.9,1111122 
NERRS,ioos:station:NOAA.NERRS:gndblwq:1,2015-01-12T20:00:00Z,30.3571,-88.4629,0.49,23.9,1111122 
NERRS,ioos:station:NOAA.NERRS:gndblwq:1,2015-01-12T21:00:00Z,30.3571,-88.4629,0.53,24.0,1111122 
NERRS,ioos:station:NOAA.NERRS:gndblwq:1,2015-01-12T22:00:00Z,30.3571,-88.4629,0.59,24.0,1111122 
NERRS,ioos:station:NOAA.NERRS:gndblwq:1,2015-01-12T23:00:00Z,30.3571,-88.4629,0.62,23.9,1111122 
NERRS,ioos:station:NOAA.NERRS:gndblwq:1,2015-01-13T00:00:00Z,30.3571,-88.4629,0.58,23.8,1111122 
NERRS,ioos:station:NOAA.NERRS:gndblwq:1,2015-01-13T01:00:00Z,30.3571,-88.4629,0.52,24.2,1111122 
NERRS,ioos:station:NOAA.NERRS:gndblwq:1,2015-01-13T02:00:00Z,30.3571,-88.4629,0.53,24.2,1111122 
NERRS,ioos:station:NOAA.NERRS:gndblwq:1,2015-01-13T03:00:00Z,30.3571,-88.4629,0.55,24.2,1111122 
NERRS,ioos:station:NOAA.NERRS:gndblwq:1,2015-01-13T04:00:00Z,30.3571,-88.4629,0.52,23.9,1111122 
NERRS,ioos:station:NOAA.NERRS:gndblwq:1,2015-01-13T05:00:00Z,30.3571,-88.4629,0.47,24.1,1111122 
NERRS,ioos:station:NOAA.NERRS:gndblwq:1,2015-01-13T06:00:00Z,30.3571,-88.4629,0.42,24.1,1111122 
NERRS,ioos:station:NOAA.NERRS:gndblwq:1,2015-01-13T07:00:00Z,30.3571,-88.4629,0.36,24.0,1111122 
NERRS,ioos:station:NOAA.NERRS:gndblwq:1,2015-01-13T08:00:00Z,30.3571,-88.4629,0.33,24.1,1111122 
NERRS,ioos:station:NOAA.NERRS:gndblwq:1,2015-01-13T09:00:00Z,30.3571,-88.4629,0.33,24.1,1111122 
NERRS,ioos:station:NOAA.NERRS:gndblwq:1,2015-01-13T10:00:00Z,30.3571,-88.4629,0.34,24.1,1111122 
NERRS,ioos:station:NOAA.NERRS:gndblwq:1,2015-01-13T11:00:00Z,30.3571,-88.4629,0.31,24.0,1111122 
NERRS,ioos:station:NOAA.NERRS:gndblwq:1,2015-01-13T12:00:00Z,30.3571,-88.4629,0.35,24.0,1111122 
NERRS,ioos:station:NOAA.NERRS:gndblwq:1,2015-01-13T13:00:00Z,30.3571,-88.4629,0.39,24.1,1111122 
NERRS,ioos:station:NOAA.NERRS:gndblwq:1,2015-01-13T14:00:00Z,30.3571,-88.4629,0.37,24.0,1111122 
NERRS,ioos:station:NOAA.NERRS:gndblwq:1,2015-01-13T15:00:00Z,30.3571,-88.4629,0.39,24.1,1111122 
NERRS,ioos:station:NOAA.NERRS:gndblwq:1,2015-01-13T16:00:00Z,30.3571,-88.4629,0.46,24.1,1111122 
NERRS,ioos:station:NOAA.NERRS:gndblwq:1,2015-01-13T17:00:00Z,30.3571,-88.4629,0.49,24.1,1111122 
NERRS,ioos:station:NOAA.NERRS:gndblwq:1,2015-01-13T18:00:00Z,30.3571,-88.4629,0.49,24.1,1111122 
NERRS,ioos:station:NOAA.NERRS:gndblwq:1,2015-01-13T19:00:00Z,30.3571,-88.4629,0.52,24.1,1111122 
NERRS,ioos:station:NOAA.NERRS:gndblwq:1,2015-01-13T20:00:00Z,30.3571,-88.4629,0.53,23.9,1111122 
NERRS,ioos:station:NOAA.NERRS:gndblwq:1,2015-01-13T21:00:00Z,30.3571,-88.4629,0.53,23.9,1111122 
NERRS,ioos:station:NOAA.NERRS:gndblwq:1,2015-01-13T22:00:00Z,30.3571,-88.4629,0.58,23.9,1111122 
NERRS,ioos:station:NOAA.NERRS:gndblwq:1,2015-01-13T23:00:00Z,30.3571,-88.4629,0.58,24.0,1111122 
NERRS,ioos:station:NOAA.NERRS:gndblwq:1,2015-01-14T00:00:00Z,30.3571,-88.4629,0.55,24.0,1111122 
NERRS,ioos:station:NOAA.NERRS:gndblwq:1,2015-01-14T01:00:00Z,30.3571,-88.4629,0.55,23.9,1111122 
NERRS,ioos:station:NOAA.NERRS:gndblwq:1,2015-01-14T02:00:00Z,30.3571,-88.4629,0.53,23.8,1111122 
NERRS,ioos:station:NOAA.NERRS:gndblwq:1,2015-01-14T03:00:00Z,30.3571,-88.4629,0.46,23.9,1111122 
NERRS,ioos:station:NOAA.NERRS:gndblwq:1,2015-01-14T04:00:00Z,30.3571,-88.4629,0.38,24.1,1111122 
NERRS,ioos:station:NOAA.NERRS:gndblwq:1,2015-01-14T05:00:00Z,30.3571,-88.4629,0.33,24.1,1111122 
NERRS,ioos:station:NOAA.NERRS:gndblwq:1,2015-01-14T06:00:00Z,30.3571,-88.4629,0.28,24.1,1111122 
NERRS,ioos:station:NOAA.NERRS:gndblwq:1,2015-01-14T07:00:00Z,30.3571,-88.4629,0.29,24.1,1111122 
NERRS,ioos:station:NOAA.NERRS:gndblwq:1,2015-01-14T08:00:00Z,30.3571,-88.4629,0.26,24.1,1111122 
NERRS,ioos:station:NOAA.NERRS:gndblwq:1,2015-01-14T09:00:00Z,30.3571,-88.4629,0.22,24.1,1111122 
NERRS,ioos:station:NOAA.NERRS:gndblwq:1,2015-01-14T10:00:00Z,30.3571,-88.4629,0.19,24.1,1111122 
NERRS,ioos:station:NOAA.NERRS:gndblwq:1,2015-01-14T11:00:00Z,30.3571,-88.4629,0.21,24.2,1111122 